TimeCDT,TemperatureF,Dew PointF,Humidity,Sea Level PressureIn,VisibilityMPH,Wind Direction,Wind SpeedMPH,Gust SpeedMPH,PrecipitationIn,Events,Conditions,WindDirDegrees,DateUTC
12:54 AM,70.0,61.0,73,29.80,10.0,SE,9.2,-,N/A,,Clear,140,2013-05-19 05:54:00
1:54 AM,70.0,60.1,71,29.82,10.0,SSE,11.5,-,N/A,,Clear,160,2013-05-19 06:54:00
2:54 AM,68.0,60.1,76,29.82,10.0,SSE,10.4,-,N/A,,Scattered Clouds,150,2013-05-19 07:54:00
3:54 AM,68.0,61.0,78,29.76,10.0,SE,15.0,20.7,0.00,,Overcast,130,2013-05-19 08:54:00
4:54 AM,69.1,61.0,75,29.80,10.0,South,13.8,-,0.00,Rain-Thunderstorm,Light Rain,170,2013-05-19 09:54:00
5:54 AM,66.0,63.0,90,29.78,7.0,SE,10.4,20.7,0.08,Rain-Thunderstorm,Light Rain,140,2013-05-19 10:54:00
5:59 AM,66.2,62.6,88,29.78,9.0,SE,11.5,-,0.00,Rain-Thunderstorm,Light Rain,130,2013-05-19 10:59:00
6:20 AM,66.2,64.4,94,29.76,10.0,ESE,12.7,-,0.00,,Partly Cloudy,110,2013-05-19 11:20:00
6:54 AM,64.4,62.6,94,29.75,10.0,SE,11.5,-,N/A,,Clear,130,2013-05-19 11:54:00
7:54 AM,66.0,63.0,90,29.79,10.0,SE,11.5,-,N/A,,Clear,140,2013-05-19 12:54:00
8:54 AM,68.0,64.0,87,29.76,10.0,ESE,11.5,-,N/A,,Clear,120,2013-05-19 13:54:00
9:54 AM,71.1,66.0,84,29.74,8.0,SE,17.3,-,N/A,,Scattered Clouds,130,2013-05-19 14:54:00
10:54 AM,75.9,68.0,76,29.74,8.0,SSE,24.2,32.2,N/A,,Clear,160,2013-05-19 15:54:00
11:23 AM,75.2,68.0,78,29.76,8.0,SE,18.4,-,N/A,,Mostly Cloudy,140,2013-05-19 16:23:00
11:51 AM,77.0,68.0,74,29.73,9.0,SE,18.4,28.8,N/A,,Scattered Clouds,140,2013-05-19 16:51:00
11:54 AM,77.0,68.0,74,29.72,9.0,SE,21.9,28.8,N/A,,Scattered Clouds,140,2013-05-19 16:54:00
12:54 PM,78.1,68.0,71,29.68,8.0,SSE,24.2,28.8,N/A,,Clear,150,2013-05-19 17:54:00
1:54 PM,78.8,68.0,69,29.68,9.0,SE,19.6,25.3,N/A,,Partly Cloudy,140,2013-05-19 18:54:00
2:54 PM,82.4,68.0,62,29.66,10.0,SSE,23.0,32.2,N/A,,Partly Cloudy,150,2013-05-19 19:54:00
3:54 PM,82.0,64.9,56,29.64,10.0,SSE,25.3,31.1,0.00,,Partly Cloudy,150,2013-05-19 20:54:00
4:54 PM,84.0,64.0,51,29.62,10.0,South,23.0,34.5,N/A,,Scattered Clouds,170,2013-05-19 21:54:00
5:54 PM,82.9,62.1,49,29.59,10.0,South,18.4,25.3,N/A,,Mostly Cloudy,170,2013-05-19 22:54:00
6:54 PM,80.1,66.0,62,29.57,10.0,SSE,19.6,25.3,N/A,,Clear,160,2013-05-19 23:54:00
7:54 PM,79.0,66.9,66,29.57,10.0,SSE,12.7,-,N/A,,Partly Cloudy,160,2013-05-20 00:54:00
8:54 PM,66.9,61.0,81,29.60,8.0,WSW,21.9,50.6,0.00,Rain-Thunderstorm,Rain,250,2013-05-20 01:54:00
9:03 PM,64.4,60.8,88,29.67,5.0,WSW,27.6,38.0,0.03,Rain-Thunderstorm,Thunderstorms and Rain,250,2013-05-20 02:03:00
9:07 PM,64.4,62.6,94,29.65,1.5,West,23.0,38.0,0.07,Rain-Thunderstorm,Heavy Thunderstorms and Rain,260,2013-05-20 02:07:00
9:20 PM,62.6,60.8,94,29.63,3.0,WNW,12.7,29.9,0.39,Rain-Thunderstorm,Thunderstorms and Rain,300,2013-05-20 02:20:00
9:33 PM,62.6,60.8,94,29.60,5.0,North,15.0,26.5,0.44,Rain-Thunderstorm,Thunderstorms and Rain,360,2013-05-20 02:33:00
9:54 PM,64.0,61.0,90,29.58,10.0,North,11.5,-,0.44,Rain-Thunderstorm,Light Thunderstorms and Rain,350,2013-05-20 02:54:00
10:10 PM,64.4,62.6,94,29.64,9.0,East,15.0,-,0.00,Rain,Light Rain,100,2013-05-20 03:10:00
10:17 PM,62.6,62.6,100,29.62,2.5,ENE,18.4,-,0.09,Rain-Thunderstorm,Heavy Thunderstorms and Rain,60,2013-05-20 03:17:00
10:30 PM,62.6,62.6,100,29.60,5.0,NNE,15.0,-,0.21,Rain-Thunderstorm,Thunderstorms and Rain,30,2013-05-20 03:30:00
10:34 PM,62.6,62.6,100,29.60,2.5,NNE,12.7,-,0.28,Rain-Thunderstorm,Heavy Thunderstorms and Rain,30,2013-05-20 03:34:00
10:42 PM,62.6,62.6,100,29.61,3.0,NE,16.1,21.9,0.37,Rain-Thunderstorm,Rain,40,2013-05-20 03:42:00
10:51 PM,62.6,62.6,100,29.64,1.8,Variable,5.8,21.9,0.50,Rain-Thunderstorm,Heavy Thunderstorms and Rain,0,2013-05-20 03:51:00
10:54 PM,62.6,62.6,100,29.67,1.2,SSW,5.8,-,N/A,Rain-Thunderstorm,Heavy Thunderstorms and Rain,200,2013-05-20 03:54:00
11:02 PM,62.6,62.6,100,29.65,0.8,Calm,Calm,-,0.34,Rain-Thunderstorm,Heavy Thunderstorms and Rain,0,2013-05-20 04:02:00
11:08 PM,62.6,62.6,100,29.68,2.0,ESE,6.9,-,0.38,Rain-Thunderstorm,Rain,120,2013-05-20 04:08:00
11:16 PM,62.6,62.6,100,29.67,3.0,Calm,Calm,-,0.41,Rain-Thunderstorm,Heavy Rain,0,2013-05-20 04:16:00
11:24 PM,62.6,62.6,100,29.68,2.5,Calm,Calm,-,0.46,Rain-Thunderstorm,Heavy Rain,0,2013-05-20 04:24:00
11:30 PM,62.6,62.6,100,29.67,3.0,East,4.6,-,0.50,Rain-Thunderstorm,Heavy Rain,100,2013-05-20 04:30:00
11:38 PM,62.6,62.6,100,29.72,5.0,South,9.2,-,0.53,Rain-Thunderstorm,Rain,180,2013-05-20 04:38:00
11:50 PM,62.6,62.6,100,29.70,3.0,SSW,5.8,-,0.64,Rain-Thunderstorm,Heavy Rain,210,2013-05-20 04:50:00
11:54 PM,63.0,62.1,97,29.69,4.0,SSW,5.8,-,0.66,Rain-Thunderstorm,Thunderstorms and Rain,200,2013-05-20 04:54:00